Terminal Aerodrome Forecast
Issued by NWS Upton, NY

Home | Current Version | Previous Version | Text Only | Print | Product List | Glossary On
Versions: 1 2 3 4 5 6 7 8 9 10 11 12 13 14 15 16 17 18 19 20 21 22 23 24 25 26 27 28 29 30 31 32 33 34 35
746
FTUS41 KOKX 201528 AAD
TAFISP
TAF AMD
KISP 201528Z 2015/2112 32011G19KT P6SM FEW250
     FM202200 32005KT P6SM SKC=

USA.gov is the U.S. government's official web portal to all federal, state and local government web resources and services.